| time (UTC) | temp F | wind direction | speed knots | gust knots | rain 1hr in | rain 24hr in | rain mn in | humidity % | barometer mb |
| 20260505140444 | 42 | 208 | 3.5 | 6.1 | 0.00 | 0.00 | 0.00 | 48 | 1012.6 |
| 20260505124857 | 39 | 275 | 0.9 | 7.0 | 0.00 | 0.00 | 0.00 | 55 | 1012.3 |
| 20260505124355 | 40 | 219 | 2.6 | 5.2 | 0.00 | 0.00 | 0.00 | 55 | 1011.8 |
| 20260505123850 | 39 | 249 | 1.7 | 2.6 | 0.00 | 0.00 | 0.00 | 55 | 1011.8 |
| 20260505123347 | 39 | 217 | 1.7 | 5.2 | 0.00 | 0.00 | 0.00 | 57 | 1011.8 |
| 20260505122843 | 39 | 223 | 1.7 | 5.2 | 0.00 | 0.00 | 0.00 | 56 | 1011.5 |
| 20260505122341 | 39 | 210 | 5.2 | 7.0 | 0.00 | 0.00 | 0.00 | 57 | 1011.6 |
| 20260505121837 | 39 | 188 | 2.6 | 5.2 | 0.00 | 0.00 | 0.00 | 57 | 1011.6 |
| 20260505121334 | 39 | 281 | 3.5 | 4.3 | 0.00 | 0.00 | 0.00 | 58 | 1011.5 |
| 20260505120830 | 39 | 161 | 1.7 | 2.6 | 0.00 | 0.00 | 0.00 | 60 | 1011.4 |
| 20260505120327 | 39 | 197 | 0.9 | 2.6 | 0.00 | 0.00 | 0.00 | 61 | 1011.2 |
| 20260505115826 | 39 | 167 | 1.7 | 1.7 | 0.00 | 0.00 | 0.00 | 61 | 1011.3 |
| 20260505115323 | 38 | 231 | 1.7 | 4.3 | 0.00 | 0.00 | 0.00 | 62 | 1011.0 |
| 20260505114821 | 38 | 266 | 2.6 | 6.1 | 0.00 | 0.00 | 0.00 | 63 | 1011.0 |
| 20260505114317 | 37 | 194 | 2.6 | 2.6 | 0.00 | 0.00 | 0.00 | 64 | 1010.9 |
| 20260505113813 | 37 | 229 | 2.6 | 5.2 | 0.00 | 0.00 | 0.00 | 65 | 1010.7 |
| 20260505113309 | 37 | 202 | 1.7 | 2.6 | 0.00 | 0.00 | 0.00 | 65 | 1010.8 |
| 20260505112805 | 37 | 226 | 6.1 | 7.8 | 0.00 | 0.00 | 0.00 | 65 | 1010.6 |
| 20260505112305 | 37 | 229 | 1.7 | 4.3 | 0.00 | 0.00 | 0.00 | 66 | 1010.9 |
| 20260505111759 | 37 | 245 | 1.7 | 5.2 | 0.00 | 0.00 | 0.00 | 65 | 1010.5 |
| 20260505111254 | 37 | 187 | 0.9 | 2.6 | 0.00 | 0.00 | 0.00 | 65 | 1010.6 |
| 20260505110750 | 37 | 214 | 2.6 | 4.3 | 0.00 | 0.00 | 0.00 | 65 | 1010.5 |
| 20260505110248 | 37 | 242 | 1.7 | 5.2 | 0.00 | 0.00 | 0.00 | 65 | 1010.6 |
| 20260505101722 | 38 | 217 | 1.7 | 4.3 | 0.00 | 0.00 | 0.00 | 65 | 1010.5 |
| 20260505101218 | 38 | 264 | 1.7 | 6.1 | 0.00 | 0.00 | 0.00 | 66 | 1010.3 |
| 20260505100715 | 38 | 234 | 0.9 | 2.6 | 0.00 | 0.00 | 0.00 | 65 | 1010.3 |
| 20260505100212 | 38 | 248 | 2.6 | 5.2 | 0.00 | 0.00 | 0.00 | 65 | 1010.3 |
| 20260505095707 | 39 | 242 | 1.7 | 5.2 | 0.00 | 0.00 | 0.00 | 65 | 1010.1 |
| 20260505095205 | 39 | 224 | 6.1 | 7.8 | 0.00 | 0.00 | 0.00 | 65 | 1010.0 |
| 20260505094700 | 39 | 221 | 3.5 | 6.1 | 0.00 | 0.00 | 0.00 | 65 | 1010.1 |
| 20260505094157 | 39 | 308 | 2.6 | 6.1 | 0.00 | 0.00 | 0.00 | 64 | 1010.2 |
| 20260505093653 | 39 | 172 | 0.0 | 4.3 | 0.00 | 0.00 | 0.00 | 65 | 1009.9 |
| 20260505093151 | 39 | 228 | 0.9 | 2.6 | 0.00 | 0.00 | 0.00 | 65 | 1009.8 |
| 20260505092648 | 39 | 194 | 0.9 | 5.2 | 0.00 | 0.00 | 0.00 | 64 | 1009.9 |
| 20260505092147 | 39 | 247 | 1.7 | 5.2 | 0.00 | 0.00 | 0.00 | 63 | 1009.8 |
| 20260505091643 | 39 | 214 | 3.5 | 7.0 | 0.00 | 0.00 | 0.00 | 64 | 1009.9 |
| 20260505091141 | 39 | 239 | 2.6 | 5.2 | 0.00 | 0.00 | 0.00 | 64 | 1009.9 |
| 20260505090638 | 39 | 240 | 0.9 | 5.2 | 0.00 | 0.00 | 0.00 | 63 | 1010.0 |
| 20260505090137 | 39 | 199 | 0.9 | 2.6 | 0.00 | 0.00 | 0.00 | 63 | 1009.7 |
| 20260505085633 | 40 | 203 | 3.5 | 5.2 | 0.00 | 0.00 | 0.00 | 62 | 1009.7 |
| 20260505085132 | 40 | 172 | 1.7 | 7.0 | 0.00 | 0.00 | 0.00 | 62 | 1009.7 |
| 20260505084629 | 40 | 358 | 0.9 | 4.3 | 0.00 | 0.00 | 0.00 | 62 | 1009.5 |
| 20260505084128 | 40 | 256 | 0.9 | 7.8 | 0.00 | 0.00 | 0.00 | 61 | 1009.4 |
| 20260505083625 | 40 | 156 | 0.0 | 5.2 | 0.00 | 0.00 | 0.00 | 61 | 1009.2 |
| 20260505083121 | 40 | 236 | 2.6 | 4.3 | 0.00 | 0.00 | 0.00 | 60 | 1009.5 |
| 20260505082616 | 41 | 246 | 0.9 | 5.2 | 0.00 | 0.00 | 0.00 | 60 | 1009.4 |
| 20260505070827 | 42 | 215 | 1.7 | 2.6 | 0.00 | 0.00 | 0.00 | 56 | 1008.8 |
| 20260505070323 | 42 | 215 | 1.7 | 2.6 | 0.00 | 0.00 | 0.00 | 56 | 1008.8 |
| 20260505065819 | 42 | 245 | 2.6 | 6.1 | 0.00 | 0.00 | 0.00 | 55 | 1008.9 |
| 20260505065316 | 42 | 257 | 6.1 | 9.6 | 0.00 | 0.00 | 0.00 | 55 | 1008.8 |
| 20260505064813 | 42 | 224 | 2.6 | 8.7 | 0.00 | 0.00 | 0.00 | 55 | 1009.0 |
| 20260505064310 | 43 | 213 | 2.6 | 7.0 | 0.00 | 0.00 | 0.00 | 55 | 1009.0 |
| 20260505063808 | 43 | 222 | 4.3 | 8.7 | 0.00 | 0.00 | 0.00 | 55 | 1008.9 |
| 20260505063304 | 43 | 233 | 0.9 | 7.8 | 0.00 | 0.00 | 0.00 | 56 | 1009.1 |
| 20260505062800 | 43 | 199 | 2.6 | 5.2 | 0.00 | 0.00 | 0.00 | 56 | 1008.7 |
| 20260505062258 | 43 | 271 | 2.6 | 5.2 | 0.00 | 0.00 | 0.00 | 56 | 1009.0 |
| 20260505061754 | 43 | 232 | 1.7 | 7.8 | 0.00 | 0.00 | 0.00 | 54 | 1009.0 |
| 20260505061253 | 43 | 245 | 6.1 | 9.6 | 0.00 | 0.00 | 0.00 | 55 | 1009.1 |
| 20260505060750 | 43 | 216 | 1.7 | 7.0 | 0.00 | 0.00 | 0.00 | 55 | 1009.1 |
| 20260505060247 | 44 | 216 | 1.7 | 6.1 | 0.00 | 0.00 | 0.00 | 54 | 1009.1 |
| 20260505055742 | 44 | 197 | 5.2 | 7.0 | 0.00 | 0.00 | 0.00 | 54 | 1008.8 |
| 20260505055238 | 44 | 236 | 2.6 | 4.3 | 0.00 | 0.00 | 0.00 | 54 | 1009.1 |
| 20260505054736 | 44 | 238 | 2.6 | 8.7 | 0.00 | 0.00 | 0.00 | 54 | 1009.0 |
| 20260505054233 | 44 | 261 | 3.5 | 7.0 | 0.00 | 0.00 | 0.00 | 54 | 1009.0 |
| 20260505053732 | 44 | 233 | 2.6 | 5.2 | 0.00 | 0.00 | 0.00 | 54 | 1008.8 |
| 20260505053222 | 44 | 260 | 3.5 | 9.6 | 0.00 | 0.00 | 0.00 | 54 | 1008.6 |
| 20260505052719 | 44 | 173 | 0.9 | 4.3 | 0.00 | 0.00 | 0.00 | 55 | 1008.6 |
| 20260505052216 | 44 | 220 | 0.9 | 4.3 | 0.00 | 0.00 | 0.00 | 54 | 1008.8 |
| 20260505051713 | 44 | 244 | 2.6 | 4.3 | 0.00 | 0.00 | 0.00 | 54 | 1008.7 |
| 20260505051211 | 44 | 264 | 6.1 | 7.8 | 0.00 | 0.00 | 0.00 | 54 | 1008.8 |
| 20260505050709 | 45 | 255 | 2.6 | 4.3 | 0.00 | 0.00 | 0.00 | 54 | 1008.6 |
| 20260505050207 | 45 | 201 | 2.6 | 7.0 | 0.00 | 0.00 | 0.00 | 54 | 1008.4 |
| 20260505041631 | 44 | 214 | 0.0 | 0.9 | 0.00 | 0.00 | 0.00 | 56 | 1008.4 |
| 20260505041128 | 45 | 244 | 0.9 | 2.6 | 0.00 | 0.00 | 0.00 | 55 | 1008.6 |
| 20260505040625 | 45 | 193 | 0.0 | 1.7 | 0.00 | 0.00 | 0.00 | 54 | 1008.7 |
| 20260505040122 | 45 | 199 | 1.7 | 2.6 | 0.00 | 0.00 | 0.00 | 53 | 1008.4 |
| 20260505035619 | 45 | 247 | 2.6 | 4.3 | 0.00 | 0.00 | 0.00 | 52 | 1008.4 |
| 20260505035115 | 46 | 234 | 4.3 | 7.0 | 0.00 | 0.00 | 0.00 | 51 | 1008.3 |
| 20260505034612 | 46 | 221 | 2.6 | 6.1 | 0.00 | 0.00 | 0.00 | 52 | 1008.4 |
| 20260505034109 | 46 | 229 | 1.7 | 4.3 | 0.00 | 0.00 | 0.00 | 51 | 1008.2 |
| 20260505033605 | 46 | 249 | 2.6 | 5.2 | 0.00 | 0.00 | 0.00 | 51 | 1008.4 |
| 20260505033104 | 46 | 190 | 6.1 | 7.8 | 0.00 | 0.00 | 0.00 | 51 | 1008.3 |
| 20260505032601 | 46 | 260 | 1.7 | 2.6 | 0.00 | 0.00 | 0.00 | 51 | 1008.4 |
| 20260505032057 | 46 | 205 | 0.9 | 4.3 | 0.00 | 0.00 | 0.00 | 50 | 1008.4 |
| 20260505031555 | 46 | 186 | 0.9 | 5.2 | 0.00 | 0.00 | 0.00 | 49 | 1008.4 |
| 20260505031051 | 46 | 246 | 0.9 | 2.6 | 0.00 | 0.00 | 0.00 | 50 | 1008.3 |
| 20260505030548 | 46 | 212 | 0.9 | 6.1 | 0.00 | 0.00 | 0.00 | 49 | 1008.6 |
| 20260505030044 | 46 | 231 | 2.6 | 2.6 | 0.00 | 0.00 | 0.00 | 49 | 1008.4 |
| 20260505025540 | 46 | 196 | 2.6 | 6.1 | 0.00 | 0.00 | 0.00 | 49 | 1008.3 |
| 20260505025039 | 46 | 204 | 3.5 | 7.0 | 0.00 | 0.00 | 0.00 | 49 | 1008.3 |
| 20260505024536 | 46 | 221 | 3.5 | 6.1 | 0.00 | 0.00 | 0.00 | 48 | 1008.3 |
| 20260505024033 | 46 | 180 | 0.9 | 4.3 | 0.00 | 0.00 | 0.00 | 49 | 1008.1 |
| 20260505023530 | 46 | 230 | 1.7 | 4.3 | 0.00 | 0.00 | 0.00 | 48 | 1008.0 |
| 20260505023028 | 46 | 250 | 2.6 | 5.2 | 0.00 | 0.00 | 0.00 | 48 | 1007.9 |
| 20260505022525 | 46 | 202 | 2.6 | 5.2 | 0.00 | 0.00 | 0.00 | 47 | 1008.0 |
| 20260505022022 | 47 | 236 | 0.9 | 1.7 | 0.00 | 0.00 | 0.00 | 48 | 1007.7 |
| 20260505021518 | 47 | 241 | 2.6 | 5.2 | 0.00 | 0.00 | 0.00 | 47 | 1007.6 |
| 20260505021015 | 47 | 229 | 3.5 | 6.1 | 0.00 | 0.00 | 0.00 | 47 | 1007.8 |
| 20260505020515 | 47 | 264 | 1.7 | 5.2 | 0.00 | 0.00 | 0.00 | 46 | 1007.6 |
| 20260505020012 | 47 | 243 | 2.6 | 6.1 | 0.00 | 0.00 | 0.00 | 46 | 1007.6 |
| 20260505015509 | 47 | 204 | 2.6 | 9.6 | 0.00 | 0.00 | 0.00 | 46 | 1007.6 |
| 20260505015006 | 47 | 203 | 3.5 | 5.2 | 0.00 | 0.00 | 0.00 | 46 | 1007.6 |
| 20260505014503 | 47 | 259 | 0.9 | 4.3 | 0.00 | 0.00 | 0.00 | 46 | 1007.5 |
| 20260505014000 | 48 | 234 | 2.6 | 11.3 | 0.00 | 0.00 | 0.00 | 46 | 1007.5 |
| 20260505013457 | 48 | 214 | 3.5 | 9.6 | 0.00 | 0.00 | 0.00 | 46 | 1007.2 |
| 20260505012954 | 48 | 181 | 2.6 | 9.6 | 0.00 | 0.00 | 0.00 | 46 | 1007.4 |
| 20260505012452 | 48 | 246 | 4.3 | 7.0 | 0.00 | 0.00 | 0.00 | 46 | 1007.1 |
| 20260505011949 | 48 | 228 | 5.2 | 12.2 | 0.00 | 0.00 | 0.00 | 47 | 1007.1 |
| 20260505011445 | 48 | 226 | 2.6 | 7.8 | 0.00 | 0.00 | 0.00 | 47 | 1006.8 |
| 20260505010942 | 49 | 238 | 3.5 | 9.6 | 0.00 | 0.00 | 0.00 | 46 | 1006.6 |
| 20260505010438 | 49 | 256 | 8.7 | 13.0 | 0.00 | 0.00 | 0.00 | 46 | 1006.6 |
| 20260505005934 | 49 | 246 | 9.6 | 13.0 | 0.00 | 0.00 | 0.00 | 46 | 1006.6 |
| 20260505005431 | 50 | 238 | 2.6 | 7.8 | 0.00 | 0.00 | 0.00 | 46 | 1006.5 |
| 20260505004929 | 50 | 220 | 4.3 | 11.3 | 0.00 | 0.00 | 0.00 | 46 | 1006.3 |
| 20260505004425 | 50 | 222 | 2.6 | 13.9 | 0.00 | 0.00 | 0.00 | 45 | 1006.2 |
| 20260505003922 | 51 | 229 | 2.6 | 8.7 | 0.00 | 0.00 | 0.00 | 45 | 1006.2 |
| 20260505003419 | 51 | 252 | 5.2 | 7.8 | 0.00 | 0.00 | 0.00 | 44 | 1006.2 |
| 20260505002915 | 51 | 269 | 3.5 | 7.8 | 0.00 | 0.00 | 0.00 | 44 | 1006.0 |
| 20260505002412 | 51 | 245 | 7.0 | 7.8 | 0.00 | 0.00 | 0.00 | 44 | 1006.0 |
| 20260505001910 | 51 | 223 | 4.3 | 12.2 | 0.00 | 0.00 | 0.00 | 44 | 1006.0 |
| 20260505001407 | 52 | 236 | 5.2 | 9.6 | 0.00 | 0.00 | 0.00 | 44 | 1005.9 |
| 20260505000904 | 52 | 180 | 5.2 | 7.8 | 0.00 | 0.00 | 0.00 | 44 | 1005.8 |
| 20260505000402 | 52 | 255 | 3.5 | 8.7 | 0.00 | 0.00 | 0.00 | 44 | 1005.8 |
| 20260504235858 | 52 | 172 | 4.3 | 7.8 | 0.00 | 0.00 | 0.00 | 44 | 1005.6 |
| 20260504235356 | 52 | 235 | 6.1 | 11.3 | 0.00 | 0.00 | 0.00 | 44 | 1005.7 |
| 20260504234852 | 52 | 250 | 5.2 | 7.8 | 0.00 | 0.00 | 0.00 | 44 | 1005.5 |
| 20260504234350 | 52 | 167 | 2.6 | 9.6 | 0.00 | 0.00 | 0.00 | 44 | 1005.6 |
| 20260504233846 | 52 | 284 | 6.1 | 9.6 | 0.00 | 0.00 | 0.00 | 44 | 1005.7 |
| 20260504233341 | 53 | 287 | 4.3 | 7.0 | 0.00 | 0.00 | 0.00 | 44 | 1005.3 |
| 20260504232839 | 53 | 219 | 7.8 | 9.6 | 0.00 | 0.00 | 0.00 | 44 | 1005.4 |
| 20260504232336 | 53 | 241 | 7.8 | 13.9 | 0.00 | 0.00 | 0.00 | 44 | 1005.2 |
| 20260504231832 | 53 | 275 | 7.8 | 13.0 | 0.00 | 0.00 | 0.00 | 44 | 1005.3 |
| 20260504231329 | 53 | 229 | 7.0 | 11.3 | 0.00 | 0.00 | 0.00 | 45 | 1005.2 |
| 20260504230825 | 53 | 199 | 7.8 | 14.8 | 0.00 | 0.00 | 0.00 | 45 | 1005.2 |
| 20260504230323 | 53 | 222 | 7.8 | 11.3 | 0.00 | 0.00 | 0.00 | 45 | 1005.2 |
| 20260504225822 | 53 | 233 | 5.2 | 13.0 | 0.00 | 0.00 | 0.00 | 45 | 1005.0 |
| 20260504225317 | 53 | 241 | 2.6 | 8.7 | 0.00 | 0.00 | 0.00 | 46 | 1005.0 |
| 20260504224815 | 54 | 118 | 2.6 | 7.8 | 0.00 | 0.00 | 0.00 | 46 | 1004.7 |
| 20260504224312 | 54 | 216 | 10.4 | 14.8 | 0.00 | 0.00 | 0.00 | 45 | 1004.8 |
| 20260504223809 | 55 | 140 | 2.6 | 13.0 | 0.00 | 0.00 | 0.00 | 45 | 1004.6 |
| 20260504223304 | 55 | 207 | 4.3 | 13.9 | 0.00 | 0.00 | 0.00 | 44 | 1004.4 |
| 20260504222801 | 55 | 229 | 7.8 | 12.2 | 0.00 | 0.00 | 0.00 | 44 | 1004.4 |
| 20260504222258 | 55 | 223 | 9.6 | 11.3 | 0.00 | 0.00 | 0.00 | 44 | 1004.4 |
| 20260504221756 | 55 | 302 | 4.3 | 9.6 | 0.00 | 0.00 | 0.00 | 44 | 1004.1 |
| 20260504221253 | 56 | 182 | 6.1 | 13.0 | 0.00 | 0.00 | 0.00 | 43 | 1004.1 |
| 20260504220749 | 56 | 245 | 1.7 | 7.8 | 0.00 | 0.00 | 0.00 | 43 | 1004.0 |
| 20260504220246 | 56 | 225 | 4.3 | 14.8 | 0.00 | 0.00 | 0.00 | 43 | 1003.7 |
| 20260504215744 | 56 | 207 | 5.2 | 8.7 | 0.00 | 0.00 | 0.00 | 43 | 1003.8 |
| 20260504215240 | 56 | 260 | 4.3 | 9.6 | 0.00 | 0.00 | 0.00 | 44 | 1003.9 |
| 20260504214736 | 56 | 279 | 4.3 | 12.2 | 0.00 | 0.00 | 0.00 | 44 | 1003.6 |
| 20260504214233 | 56 | 281 | 5.2 | 14.8 | 0.00 | 0.00 | 0.00 | 44 | 1003.7 |
| 20260504213729 | 56 | 270 | 4.3 | 9.6 | 0.00 | 0.00 | 0.00 | 44 | 1003.5 |
| 20260504213225 | 57 | 230 | 3.5 | 13.9 | 0.00 | 0.00 | 0.00 | 42 | 1003.3 |
| 20260504212722 | 58 | 262 | 10.4 | 13.0 | 0.00 | 0.00 | 0.00 | 39 | 1003.3 |
| 20260504212214 | 59 | 220 | 9.6 | 12.2 | 0.00 | 0.00 | 0.00 | 41 | 1003.1 |
| 20260504211711 | 59 | 237 | 6.1 | 7.8 | 0.00 | 0.00 | 0.00 | 40 | 1003.1 |
| 20260504211207 | 57 | 207 | 7.8 | 20.9 | 0.00 | 0.00 | 0.00 | 42 | 1003.1 |
| 20260504210705 | 58 | 158 | 7.0 | 13.9 | 0.00 | 0.00 | 0.00 | 41 | 1003.2 |
| 20260504210202 | 58 | 232 | 7.0 | 14.8 | 0.00 | 0.00 | 0.00 | 42 | 1003.3 |
| 20260504205659 | 58 | 245 | 4.3 | 8.7 | 0.00 | 0.00 | 0.00 | 43 | 1003.1 |
| 20260504205156 | 60 | 257 | 6.1 | 12.2 | 0.00 | 0.00 | 0.00 | 41 | 1003.0 |
| 20260504204654 | 57 | 131 | 3.5 | 7.8 | 0.00 | 0.00 | 0.00 | 43 | 1003.1 |
| 20260504204153 | 59 | 188 | 11.3 | 14.8 | 0.00 | 0.00 | 0.00 | 41 | 1003.2 |
| 20260504203651 | 59 | 237 | 4.3 | 14.8 | 0.00 | 0.00 | 0.00 | 40 | 1003.0 |
| 20260504203148 | 60 | 242 | 6.1 | 13.9 | 0.00 | 0.00 | 0.00 | 42 | 1003.0 |
| 20260504202643 | 60 | 235 | 7.0 | 13.9 | 0.00 | 0.00 | 0.00 | 42 | 1002.8 |
| 20260504202140 | 59 | 202 | 7.0 | 18.2 | 0.00 | 0.00 | 0.00 | 44 | 1002.8 |
| 20260504201637 | 59 | 125 | 1.7 | 13.0 | 0.00 | 0.00 | 0.00 | 44 | 1002.8 |
| 20260504201135 | 60 | 229 | 6.1 | 12.2 | 0.00 | 0.00 | 0.00 | 44 | 1002.8 |
| 20260504200632 | 60 | 215 | 3.5 | 13.9 | 0.00 | 0.00 | 0.00 | 43 | 1002.6 |
| 20260504200128 | 60 | 154 | 6.1 | 11.3 | 0.00 | 0.00 | 0.00 | 44 | 1002.5 |
| 20260504195624 | 59 | 176 | 2.6 | 14.8 | 0.00 | 0.00 | 0.00 | 44 | 1002.6 |
| 20260504195121 | 60 | 236 | 7.8 | 13.0 | 0.00 | 0.00 | 0.00 | 44 | 1002.7 |
| 20260504194618 | 60 | 296 | 6.1 | 14.8 | 0.00 | 0.00 | 0.00 | 44 | 1002.4 |
| 20260504194113 | 60 | 200 | 5.2 | 13.9 | 0.00 | 0.00 | 0.00 | 44 | 1002.5 |
| 20260504193609 | 61 | 247 | 4.3 | 13.0 | 0.00 | 0.00 | 0.00 | 43 | 1002.4 |
| 20260504193108 | 60 | 234 | 9.6 | 14.8 | 0.00 | 0.00 | 0.00 | 44 | 1002.3 |
| 20260504192606 | 61 | 229 | 7.0 | 14.8 | 0.00 | 0.00 | 0.00 | 44 | 1002.2 |
| 20260504192104 | 61 | 257 | 6.1 | 11.3 | 0.00 | 0.00 | 0.00 | 44 | 1002.5 |
| 20260504191602 | 60 | 243 | 7.8 | 15.6 | 0.00 | 0.00 | 0.00 | 43 | 1002.2 |
| 20260504191058 | 61 | 226 | 8.7 | 11.3 | 0.00 | 0.00 | 0.00 | 42 | 1002.0 |
| 20260504190554 | 60 | 216 | 9.6 | 13.9 | 0.00 | 0.00 | 0.00 | 42 | 1001.9 |
| 20260504190050 | 60 | 249 | 5.2 | 13.0 | 0.00 | 0.00 | 0.00 | 40 | 1002.0 |
| 20260504185548 | 60 | 215 | 5.2 | 9.6 | 0.00 | 0.00 | 0.00 | 40 | 1002.0 |
| 20260504185044 | 61 | 193 | 2.6 | 9.6 | 0.00 | 0.00 | 0.00 | 40 | 1001.6 |
| 20260504184539 | 62 | 191 | 0.9 | 13.0 | 0.00 | 0.00 | 0.00 | 39 | 1001.7 |
| 20260504184035 | 61 | 210 | 5.2 | 12.2 | 0.00 | 0.00 | 0.00 | 40 | 1001.2 |
| 20260504183532 | 61 | 228 | 4.3 | 13.9 | 0.00 | 0.00 | 0.00 | 40 | 1001.6 |
| 20260504183030 | 61 | 182 | 8.7 | 15.6 | 0.00 | 0.00 | 0.00 | 39 | 1001.7 |
| 20260504182527 | 61 | 175 | 2.6 | 7.0 | 0.00 | 0.00 | 0.00 | 40 | 1001.5 |
| 20260504182024 | 62 | 238 | 4.3 | 13.0 | 0.00 | 0.00 | 0.00 | 39 | 1001.4 |
| 20260504181521 | 62 | 235 | 4.3 | 9.6 | 0.00 | 0.00 | 0.00 | 42 | 1001.2 |
| 20260504181020 | 62 | 243 | 5.2 | 11.3 | 0.00 | 0.00 | 0.00 | 41 | 1001.2 |
| 20260504180518 | 61 | 160 | 6.1 | 11.3 | 0.00 | 0.00 | 0.00 | 42 | 1001.2 |
| 20260504180017 | 62 | 116 | 4.3 | 13.0 | 0.00 | 0.00 | 0.00 | 42 | 1001.1 |
| 20260504175513 | 62 | 227 | 10.4 | 14.8 | 0.00 | 0.00 | 0.00 | 42 | 1001.1 |
| 20260504175010 | 61 | 151 | 6.1 | 13.0 | 0.00 | 0.00 | 0.00 | 43 | 1001.1 |
| 20260504174508 | 61 | 255 | 7.8 | 13.0 | 0.00 | 0.00 | 0.00 | 44 | 1001.1 |
| 20260504174005 | 61 | 237 | 3.5 | 9.6 | 0.00 | 0.00 | 0.00 | 44 | 1001.1 |
| 20260504173502 | 61 | 353 | 6.1 | 7.8 | 0.00 | 0.00 | 0.00 | 44 | 1001.1 |
| 20260504172959 | 60 | 214 | 4.3 | 13.9 | 0.00 | 0.00 | 0.00 | 45 | 1001.1 |
| 20260504172455 | 61 | 179 | 7.0 | 13.9 | 0.00 | 0.00 | 0.00 | 44 | 1000.9 |
| 20260504171952 | 61 | 262 | 6.1 | 19.1 | 0.00 | 0.00 | 0.00 | 44 | 1001.0 |
| 20260504171449 | 61 | 243 | 1.7 | 11.3 | 0.00 | 0.00 | 0.00 | 44 | 1000.9 |
| 20260504170946 | 61 | 160 | 7.0 | 13.9 | 0.00 | 0.00 | 0.00 | 43 | 1000.8 |
| 20260504170442 | 61 | 238 | 6.1 | 13.9 | 0.00 | 0.00 | 0.00 | 44 | 1000.9 |
| 20260504160401 | 61 | 236 | 7.8 | 15.6 | 0.00 | 0.00 | 0.00 | 43 | 1000.6 |
| 20260504150825 | 60 | 234 | 5.2 | 11.3 | 0.00 | 0.00 | 0.00 | 43 | 1000.2 |
| 20260504150322 | 59 | 173 | 8.7 | 12.2 | 0.00 | 0.00 | 0.00 | 43 | 1000.5 |